TimeCDT,TemperatureF,Dew PointF,Humidity,Sea Level PressureIn,VisibilityMPH,Wind Direction,Wind SpeedMPH,Gust SpeedMPH,PrecipitationIn,Events,Conditions,WindDirDegrees,DateUTC
12:58 AM,30.4,22.5,72,29.95,10.0,West,8.1,-,N/A,,Clear,260,2013-10-22 05:58:00
1:58 AM,28.4,22.5,78,29.96,10.0,West,8.1,-,N/A,,Clear,260,2013-10-22 06:58:00
2:58 AM,28.2,22.8,80,29.97,10.0,West,8.1,-,N/A,,Clear,270,2013-10-22 07:58:00
3:58 AM,26.4,22.5,85,29.97,10.0,West,6.9,-,N/A,,Clear,260,2013-10-22 08:58:00
4:58 AM,25.2,22.1,88,29.98,10.0,West,6.9,-,N/A,,Clear,280,2013-10-22 09:58:00
5:58 AM,23.5,21.4,91,29.99,10.0,West,4.6,-,N/A,,Clear,270,2013-10-22 10:58:00
6:58 AM,24.8,21.2,86,29.98,10.0,West,4.6,-,N/A,,Clear,280,2013-10-22 11:58:00
7:58 AM,23.0,21.2,93,29.98,10.0,West,5.8,-,N/A,,Scattered Clouds,270,2013-10-22 12:58:00
8:58 AM,32.0,28.4,87,29.98,10.0,WNW,4.6,-,N/A,,Scattered Clouds,300,2013-10-22 13:58:00
9:58 AM,33.8,28.4,81,29.99,10.0,West,8.1,-,N/A,,Scattered Clouds,270,2013-10-22 14:58:00
10:58 AM,37.4,28.4,70,29.99,10.0,Variable,5.8,-,N/A,,Mostly Cloudy,0,2013-10-22 15:58:00
11:58 AM,41.0,28.4,61,29.98,10.0,NW,5.8,-,N/A,,Mostly Cloudy,320,2013-10-22 16:58:00
12:58 PM,42.8,30.2,61,29.96,10.0,Variable,6.9,-,N/A,,Scattered Clouds,0,2013-10-22 17:58:00
1:58 PM,44.6,26.6,49,29.94,10.0,West,10.4,-,N/A,,Scattered Clouds,270,2013-10-22 18:58:00
2:58 PM,44.6,26.6,49,29.94,10.0,WNW,5.8,-,N/A,,Scattered Clouds,300,2013-10-22 19:58:00
3:58 PM,44.6,26.6,49,29.95,10.0,North,10.4,-,N/A,,Mostly Cloudy,350,2013-10-22 20:58:00
4:58 PM,42.8,26.6,53,29.96,10.0,NNW,6.9,-,N/A,,Mostly Cloudy,340,2013-10-22 21:58:00
5:58 PM,42.8,26.6,53,29.98,10.0,NNW,4.6,-,N/A,,Mostly Cloudy,330,2013-10-22 22:58:00
6:58 PM,39.2,28.4,65,29.99,10.0,NW,12.7,18.4,N/A,,Mostly Cloudy,310,2013-10-22 23:58:00
7:58 PM,32.0,26.6,80,30.01,10.0,WNW,9.2,-,N/A,,Scattered Clouds,290,2013-10-23 00:58:00
8:58 PM,28.4,26.6,93,30.01,10.0,WNW,6.9,-,N/A,,Partly Cloudy,290,2013-10-23 01:58:00
9:58 PM,32.0,26.6,80,30.02,10.0,WNW,6.9,-,N/A,,Mostly Cloudy,290,2013-10-23 02:58:00
10:58 PM,32.0,28.4,87,30.02,10.0,WNW,5.8,-,N/A,,Mostly Cloudy,300,2013-10-23 03:58:00
11:58 PM,29.5,27.0,90,30.01,10.0,WNW,5.8,-,N/A,,Mostly Cloudy,290,2013-10-23 04:58:00